Location: Kawakawa
(35.3830°S, 174.0670°E)
Time: 08:18:27
(UTC+13:00)

A-11 Canister half - Pass Details

Date: 14 December 2019
Orbit: 1525 x 1684 km, 47.3° (Epoch: 19 January)

Event Time Altitude Azimuth Distance (km) Brightness Sun altitude
Rises 02:16:20 0° 240° (WSW) 4,722 11.7 -29.8°
Reaches altitude 10° 02:19:37 10° 247° (WSW) 3,751 11.1 -29.7°
Enters shadow 02:26:24 37° 289° (WNW) 2,290 9.6 -29.3°
